This is the latest recevied weather packets stored in our database for station/object K1TTC. If no packets are shown the sender has not sent any weather packets the latest 10 day(s).
| Time | Temp. | Humidity | Pressure | Rain* | Wind** | Luminosity | Snow |
|---|---|---|---|---|---|---|---|
| 1788471514 | 23.89° C | 69% | 1013.5 hPa | 0 mm | - | 128 W/m² | - |
| 1788470907 | 23.89° C | 68% | 1013.6 hPa | 0 mm | - | 65 W/m² | - |
| 1788470307 | 23.89° C | 69% | 1013.4 hPa | 0 mm | - | 49 W/m² | - |
| 1788469707 | 23.89° C | 69% | 1013.5 hPa | 0 mm | - | 69 W/m² | - |
| 1788469103 | 23.89° C | 69% | 1013.3 hPa | 0 mm | - | 162 W/m² | - |
| 1788468503 | 23.89° C | 68% | 1013.4 hPa | 0 mm | - | 113 W/m² | - |
| 1788467904 | 23.89° C | 68% | 1013.5 hPa | 0 mm | - | 69 W/m² | - |
| 1788467307 | 23.89° C | 68% | 1013.5 hPa | 0 mm | - | 70 W/m² | - |
| 1788466703 | 24.44° C | 67% | 1013.5 hPa | 0 mm | - | 156 W/m² | - |
| 1788466161 | 24.44° C | 68% | 1013.7 hPa | 0 mm | - | 109 W/m² | - |
| 1788465503 | 24.44° C | 69% | 1013.7 hPa | 0 mm | - | 461 W/m² | - |
| 1788464908 | 23.89° C | 70% | 1013.9 hPa | 0 mm | - | 568 W/m² | - |
| 1788464300 | 23.33° C | 70% | 1014 hPa | 0 mm | - | 522 W/m² | - |
| 1788463701 | 23.33° C | 72% | 1014.1 hPa | 0 mm | - | 334 W/m² | - |
| 1788463101 | 22.78° C | 72% | 1014.2 hPa | 0 mm | - | 411 W/m² | - |
| 1788462501 | 22.78° C | 72% | 1014.2 hPa | 0 mm | - | 390 W/m² | - |
| 1788461901 | 22.22° C | 73% | 1014.6 hPa | 0 mm | - | 285 W/m² | - |
| 1788461300 | 22.22° C | 74% | 1014.8 hPa | 0 mm | - | 178 W/m² | - |
| 1788460700 | 22.22° C | 75% | 1014.7 hPa | 0 mm | - | 415 W/m² | - |
| 1788460099 | 21.67° C | 75% | 1014.7 hPa | 0 mm | - | 424 W/m² | - |
| 1788459499 | 21.67° C | 76% | 1014.9 hPa | 0 mm | - | 396 W/m² | - |
| 1788458897 | 21.11° C | 77% | 1015 hPa | 0 mm | - | 206 W/m² | - |
| 1788458297 | 21.11° C | 78% | 1015 hPa | 0 mm | - | 211 W/m² | - |
| 1788457697 | 21.11° C | 79% | 1015.2 hPa | 0 mm | - | 181 W/m² | - |
| 1788457097 | 21.11° C | 80% | 1015.4 hPa | 0 mm | - | 165 W/m² | - |
* Rain latest hour (hover to see other rain measurements)
** Current wind speed in m/s (hover to see current wind gust speed)